Location: Acheville
(50.3840°N, 2.8827°E)
Time: 12:14:34
(UTC+00:00)

ATLAS 5 CENTAUR R/B - Pass Details

Date: 24 October 2021
Orbit: 497 x 1159 km, 63.4° (Epoch: 25 November)

Event Time Altitude Azimuth Distance (km) Brightness Sun altitude
Rises 17:48:44 0° 237° (WSW) 2,626 6.0 -11.8°
Reaches altitude 10° 17:50:49 10° 243° (WSW) 1,784 5.1 -12.1°
Maximum altitude 17:54:42 53° 321° (NW) 719 2.1 -12.7°
Drops below altitude 10° 17:59:11 10° 38° (NE) 2,064 3.9 -13.4°
Enters shadow 17:59:26 - 39° (NE) 2,164 4.0 -13.5°
